TGW658 WSSS-VTSP

Flight info

Callsign TGW658
Flight time 1h 23m
Altitude 38000
Route AROSO3A AROSO Y513 KALIL Y501 RINBA Y502 DUBAX R325 URGAD URGAD1C
Aircraft A320/M-SDE3FGHIRWY/LB1

Departure

Time 2026-05-06 16:28
Airport Singapore Changi Airport (WSSS)

Arrival

Time 2026-05-06 17:52
Airport Phuket International Airport (VTSP)
Time Latitude Longitude Altitude Speed Heading
2026-05-06 16:11 1.33653 103.98413 28 ft 0 kts 292°
2026-05-06 16:11 1.33737 103.98450 29 ft 0 kts 292°
2026-05-06 16:16 1.33736 103.98451 25 ft 2 kts 292°
2026-05-06 16:16 1.33727 103.98471 27 ft 3 kts 291°
2026-05-06 16:17 1.33727 103.98492 28 ft 4 kts 228°
2026-05-06 16:17 1.33747 103.98507 26 ft 3 kts 203°
2026-05-06 16:17 1.33750 103.98508 26 ft 0 kts 202°
2026-05-06 16:21 1.33734 103.98502 26 ft 4 kts 202°
2026-05-06 16:21 1.33699 103.98487 27 ft 7 kts 202°
2026-05-06 16:21 1.33657 103.98498 27 ft 8 kts 118°
2026-05-06 16:22 1.33625 103.98521 25 ft 6 kts 192°
2026-05-06 16:22 1.33578 103.98499 27 ft 9 kts 205°
2026-05-06 16:22 1.33515 103.98472 26 ft 11 kts 206°
2026-05-06 16:22 1.33439 103.98436 26 ft 13 kts 204°
2026-05-06 16:23 1.33415 103.98427 27 ft 14 kts 199°
2026-05-06 16:23 1.33332 103.98396 27 ft 14 kts 207°
2026-05-06 16:23 1.33239 103.98344 25 ft 16 kts 201°
2026-05-06 16:24 1.33151 103.98309 25 ft 9 kts 201°
2026-05-06 16:24 1.33087 103.98284 26 ft 11 kts 201°
2026-05-06 16:24 1.33020 103.98255 28 ft 8 kts 205°
2026-05-06 16:24 1.32995 103.98263 28 ft 4 kts 112°
2026-05-06 16:25 1.32985 103.98296 25 ft 6 kts 108°
2026-05-06 16:25 1.32967 103.98338 28 ft 7 kts 113°
2026-05-06 16:25 1.32953 103.98372 26 ft 2 kts 112°
2026-05-06 16:25 1.32950 103.98380 27 ft 0 kts 112°
2026-05-06 16:26 1.32949 103.98383 27 ft 1 kts 112°
2026-05-06 16:26 1.32940 103.98404 27 ft 5 kts 112°
2026-05-06 16:26 1.32920 103.98451 28 ft 8 kts 112°
2026-05-06 16:27 1.32904 103.98508 28 ft 8 kts 75°
2026-05-06 16:27 1.32925 103.98520 29 ft 0 kts 20°
2026-05-06 16:27 1.32980 103.98542 29 ft 33 kts 23°
2026-05-06 16:28 1.33423 103.98729 27 ft 101 kts 23°
2026-05-06 16:28 1.34237 103.99071 31 ft 151 kts 22°
2026-05-06 16:28 1.35299 103.99523 388 ft 163 kts 22°
2026-05-06 16:28 1.36335 103.99961 970 ft 163 kts 22°
2026-05-06 16:29 1.37385 104.00403 1563 ft 164 kts 23°
2026-05-06 16:29 1.38459 104.00857 1962 ft 177 kts 23°
2026-05-06 16:29 1.39679 104.01375 2181 ft 200 kts 23°
2026-05-06 16:29 1.41029 104.01942 2395 ft 224 kts 23°
2026-05-06 16:30 1.42534 104.02575 2721 ft 248 kts 23°
2026-05-06 16:30 1.43646 104.03044 2989 ft 264 kts 23°
2026-05-06 16:30 1.45938 104.04010 3946 ft 274 kts 23°
2026-05-06 16:30 1.47765 104.04641 4795 ft 279 kts 10°
2026-05-06 16:31 1.49694 104.04714 5618 ft 282 kts 352°
2026-05-06 16:31 1.51574 104.04180 6438 ft 285 kts 334°
2026-05-06 16:31 1.53336 104.03232 7222 ft 287 kts 331°
2026-05-06 16:31 1.55092 104.02275 7990 ft 291 kts 331°
2026-05-06 16:32 1.56873 104.01309 8751 ft 294 kts 332°
2026-05-06 16:32 1.58690 104.00327 9514 ft 298 kts 332°
2026-05-06 16:32 1.60539 103.99331 10193 ft 303 kts 332°
2026-05-06 16:32 1.62448 103.98303 10413 ft 325 kts 332°
2026-05-06 16:33 1.63801 103.97575 10551 ft 338 kts 332°
2026-05-06 16:33 1.66602 103.96066 11246 ft 347 kts 332°
2026-05-06 16:33 1.68732 103.94918 11849 ft 350 kts 332°
2026-05-06 16:34 1.73057 103.92579 13092 ft 357 kts 333°
2026-05-06 16:34 1.74483 103.91729 13487 ft 360 kts 326°
2026-05-06 16:34 1.76413 103.90085 14035 ft 366 kts 314°
2026-05-06 16:34 1.78011 103.88113 14565 ft 369 kts 308°
2026-05-06 16:35 1.79576 103.86072 15094 ft 372 kts 308°
2026-05-06 16:35 1.81173 103.83997 15622 ft 376 kts 308°
2026-05-06 16:35 1.83312 103.81226 16318 ft 380 kts 309°
2026-05-06 16:35 1.84379 103.79846 16667 ft 382 kts 309°
2026-05-06 16:36 1.86023 103.77724 17185 ft 385 kts 309°
2026-05-06 16:36 1.87660 103.75607 17694 ft 389 kts 309°
2026-05-06 16:36 1.89333 103.73444 18183 ft 393 kts 309°
2026-05-06 16:36 1.90996 103.71292 18612 ft 396 kts 309°
2026-05-06 16:37 1.92698 103.69081 19060 ft 399 kts 309°
2026-05-06 16:37 1.94378 103.66892 19504 ft 402 kts 309°
2026-05-06 16:37 1.96099 103.64651 19964 ft 405 kts 309°
2026-05-06 16:37 1.97803 103.62435 20420 ft 408 kts 309°
2026-05-06 16:38 1.99541 103.60173 20875 ft 411 kts 309°
2026-05-06 16:38 2.01279 103.57912 21328 ft 413 kts 309°
2026-05-06 16:38 2.03036 103.55624 21773 ft 417 kts 309°
2026-05-06 16:38 2.04823 103.53300 22223 ft 420 kts 309°
2026-05-06 16:39 2.06592 103.50999 22660 ft 423 kts 309°
2026-05-06 16:39 2.08399 103.48649 23099 ft 426 kts 309°
2026-05-06 16:39 2.10219 103.46284 23510 ft 429 kts 309°
2026-05-06 16:39 2.12028 103.43936 23847 ft 431 kts 309°
2026-05-06 16:40 2.13774 103.41477 24184 ft 434 kts 301°
2026-05-06 16:40 2.15102 103.38738 24529 ft 438 kts 291°
2026-05-06 16:40 2.15991 103.35862 24863 ft 440 kts 287°
2026-05-06 16:40 2.16848 103.32896 25204 ft 442 kts 287°
2026-05-06 16:41 2.17715 103.29929 25544 ft 444 kts 287°
2026-05-06 16:41 2.18581 103.26996 25865 ft 446 kts 287°
2026-05-06 16:41 2.19470 103.23987 26192 ft 448 kts 287°
2026-05-06 16:41 2.20355 103.20988 26508 ft 450 kts 287°
2026-05-06 16:42 2.21238 103.17986 26814 ft 452 kts 287°
2026-05-06 16:42 2.22125 103.14956 27120 ft 454 kts 287°
2026-05-06 16:42 2.23014 103.11908 27424 ft 456 kts 287°
2026-05-06 16:42 2.23898 103.08873 27728 ft 458 kts 287°
2026-05-06 16:43 2.24789 103.05830 28017 ft 460 kts 287°
2026-05-06 16:43 2.25693 103.02744 28316 ft 462 kts 287°
2026-05-06 16:43 2.26605 102.99640 28608 ft 464 kts 287°
2026-05-06 16:43 2.27509 102.96559 28904 ft 466 kts 287°
2026-05-06 16:44 2.28420 102.93446 29194 ft 468 kts 287°
2026-05-06 16:44 2.29337 102.90311 29499 ft 470 kts 287°
2026-05-06 16:44 2.30253 102.87180 29792 ft 472 kts 287°
2026-05-06 16:44 2.31178 102.84017 30067 ft 474 kts 287°
2026-05-06 16:45 2.32114 102.80823 30317 ft 476 kts 287°
2026-05-06 16:45 2.33041 102.77668 30562 ft 478 kts 287°
2026-05-06 16:45 2.33981 102.74467 30803 ft 479 kts 287°
2026-05-06 16:45 2.34914 102.71275 31075 ft 480 kts 287°
2026-05-06 16:46 2.35856 102.68045 31442 ft 478 kts 287°
2026-05-06 16:46 2.36786 102.64869 31813 ft 477 kts 287°
2026-05-06 16:46 2.37718 102.61676 32194 ft 476 kts 287°
2026-05-06 16:46 2.38640 102.58513 32574 ft 474 kts 287°
2026-05-06 16:47 2.39557 102.55366 32948 ft 473 kts 287°
2026-05-06 16:47 2.40471 102.52237 33331 ft 472 kts 287°
2026-05-06 16:47 2.41394 102.49073 33721 ft 470 kts 287°
2026-05-06 16:47 2.42309 102.45929 34073 ft 469 kts 287°
2026-05-06 16:48 2.43211 102.42830 34387 ft 468 kts 287°
2026-05-06 16:48 2.44126 102.39688 34703 ft 467 kts 287°
2026-05-06 16:48 2.45169 102.36643 35003 ft 465 kts 295°
2026-05-06 16:48 2.46710 102.33786 35279 ft 464 kts 304°
2026-05-06 16:49 2.48680 102.31260 35556 ft 462 kts 314°
2026-05-06 16:49 2.51058 102.29085 35829 ft 460 kts 323°
2026-05-06 16:49 2.53570 102.27136 36108 ft 459 kts 323°
2026-05-06 16:49 2.56076 102.25183 36385 ft 459 kts 323°
2026-05-06 16:50 2.58597 102.23206 36661 ft 458 kts 323°
2026-05-06 16:50 2.61103 102.21235 36940 ft 457 kts 323°
2026-05-06 16:50 2.63586 102.19278 37193 ft 457 kts 323°
2026-05-06 16:50 2.66087 102.17308 37440 ft 456 kts 323°
2026-05-06 16:51 2.68560 102.15363 37690 ft 456 kts 323°
2026-05-06 16:51 2.71071 102.13391 37866 ft 456 kts 323°
2026-05-06 16:51 2.73587 102.11418 37904 ft 458 kts 323°
2026-05-06 16:52 2.78598 102.07483 37904 ft 459 kts 323°
2026-05-06 16:52 2.83626 102.03529 37889 ft 459 kts 323°
2026-05-06 16:53 2.88647 101.99586 37893 ft 461 kts 323°
2026-05-06 16:53 2.93690 101.95628 37895 ft 461 kts 323°
2026-05-06 16:54 2.98732 101.91676 37908 ft 462 kts 323°
2026-05-06 16:54 3.03844 101.87663 37899 ft 470 kts 323°
2026-05-06 16:55 3.09020 101.83591 37899 ft 478 kts 323°
2026-05-06 16:55 3.14282 101.79459 37901 ft 482 kts 323°
2026-05-06 16:56 3.19553 101.75315 37900 ft 482 kts 323°
2026-05-06 16:56 3.24829 101.71166 37896 ft 482 kts 323°
2026-05-06 16:57 3.30114 101.67012 37898 ft 482 kts 323°
2026-05-06 16:57 3.35745 101.63504 37914 ft 479 kts 337°
2026-05-06 16:58 3.41848 101.60810 37923 ft 479 kts 337°
2026-05-06 16:58 3.47920 101.58113 37919 ft 479 kts 337°
2026-05-06 16:59 3.54007 101.55398 37918 ft 479 kts 337°
2026-05-06 16:59 3.60103 101.52681 37921 ft 479 kts 337°
2026-05-06 17:00 3.66190 101.49968 37917 ft 479 kts 337°
2026-05-06 17:00 3.72275 101.47266 37915 ft 478 kts 337°
2026-05-06 17:01 3.78348 101.44575 37898 ft 479 kts 337°
2026-05-06 17:01 3.84480 101.41846 37901 ft 480 kts 337°
2026-05-06 17:02 3.90569 101.39130 37901 ft 480 kts 337°
2026-05-06 17:02 3.96675 101.36419 37909 ft 481 kts 337°
2026-05-06 17:03 4.02791 101.33695 37906 ft 482 kts 337°
2026-05-06 17:03 4.08919 101.30957 37932 ft 481 kts 337°
2026-05-06 17:04 4.15043 101.28229 37916 ft 481 kts 337°
2026-05-06 17:04 4.21171 101.25502 37919 ft 480 kts 337°
2026-05-06 17:05 4.27251 101.22800 37914 ft 480 kts 337°
2026-05-06 17:05 4.33375 101.20076 37917 ft 480 kts 337°
2026-05-06 17:06 4.39473 101.17364 37924 ft 480 kts 337°
2026-05-06 17:06 4.45557 101.14657 37920 ft 480 kts 337°
2026-05-06 17:07 4.51672 101.11936 37916 ft 480 kts 336°
2026-05-06 17:07 4.57764 101.09217 37915 ft 480 kts 336°
2026-05-06 17:08 4.63883 101.06546 37915 ft 480 kts 337°
2026-05-06 17:08 4.70015 101.03928 37917 ft 480 kts 337°
2026-05-06 17:09 4.76161 101.01300 37911 ft 480 kts 337°
2026-05-06 17:09 4.82291 100.98654 37912 ft 480 kts 337°
2026-05-06 17:10 4.88431 100.95999 37907 ft 481 kts 336°
2026-05-06 17:10 4.94561 100.93355 37904 ft 482 kts 336°
2026-05-06 17:11 5.00749 100.90684 37900 ft 483 kts 336°
2026-05-06 17:11 5.06935 100.88014 37904 ft 483 kts 336°
2026-05-06 17:12 5.13076 100.85362 37895 ft 484 kts 336°
2026-05-06 17:12 5.19278 100.82677 37896 ft 484 kts 336°
2026-05-06 17:13 5.25449 100.80007 37897 ft 484 kts 336°
2026-05-06 17:13 5.31635 100.77337 37898 ft 484 kts 336°
2026-05-06 17:14 5.37779 100.74584 37909 ft 483 kts 330°
2026-05-06 17:14 5.43602 100.71296 37894 ft 483 kts 330°
2026-05-06 17:15 5.49463 100.67982 37889 ft 483 kts 330°
2026-05-06 17:15 5.54560 100.65100 37895 ft 483 kts 330°
2026-05-06 17:16 5.60405 100.61790 37893 ft 482 kts 330°
2026-05-06 17:16 5.66264 100.58474 37895 ft 482 kts 331°
2026-05-06 17:17 5.72119 100.55170 37879 ft 482 kts 330°
2026-05-06 17:17 5.77930 100.51885 37878 ft 481 kts 330°
2026-05-06 17:18 5.83719 100.48515 37886 ft 481 kts 329°
2026-05-06 17:18 5.89437 100.45040 37890 ft 481 kts 328°
2026-05-06 17:19 5.95175 100.41547 37892 ft 481 kts 329°
2026-05-06 17:19 6.00891 100.38107 37883 ft 481 kts 329°
2026-05-06 17:20 6.06645 100.34668 37886 ft 481 kts 329°
2026-05-06 17:20 6.12390 100.31222 37881 ft 482 kts 329°
2026-05-06 17:21 6.18154 100.27763 37884 ft 482 kts 329°
2026-05-06 17:21 6.23897 100.24310 37885 ft 482 kts 329°
2026-05-06 17:22 6.29634 100.20855 37878 ft 482 kts 329°
2026-05-06 17:22 6.35390 100.17385 37877 ft 481 kts 329°
2026-05-06 17:23 6.40182 100.14509 37880 ft 481 kts 329°
2026-05-06 17:24 6.52886 100.02002 37883 ft 478 kts 312°
2026-05-06 17:24 6.55145 99.99518 37883 ft 478 kts 312°
2026-05-06 17:25 6.59591 99.94620 37880 ft 478 kts 312°
2026-05-06 17:25 6.64080 99.89664 37837 ft 478 kts 311°
2026-05-06 17:25 6.66296 99.87216 37349 ft 474 kts 312°
2026-05-06 17:26 6.68506 99.84776 36540 ft 475 kts 312°
2026-05-06 17:26 6.70732 99.82319 35643 ft 478 kts 312°
2026-05-06 17:26 6.72977 99.79839 35122 ft 473 kts 312°
2026-05-06 17:26 6.74441 99.78218 34804 ft 470 kts 312°
2026-05-06 17:27 6.77555 99.74770 34070 ft 466 kts 312°
2026-05-06 17:27 6.79730 99.72361 33512 ft 463 kts 312°
2026-05-06 17:27 6.81870 99.69995 33000 ft 459 kts 312°
2026-05-06 17:27 6.84013 99.67631 32478 ft 456 kts 312°
2026-05-06 17:28 6.86142 99.65279 31955 ft 453 kts 312°
2026-05-06 17:28 6.88257 99.62939 31440 ft 450 kts 312°
2026-05-06 17:28 6.90363 99.60607 30939 ft 447 kts 312°
2026-05-06 17:28 6.92426 99.58322 30441 ft 444 kts 312°
2026-05-06 17:29 6.94492 99.56034 29950 ft 442 kts 312°
2026-05-06 17:29 6.96553 99.53751 29410 ft 439 kts 312°
2026-05-06 17:29 6.98598 99.51487 28940 ft 434 kts 312°
2026-05-06 17:29 7.00627 99.49242 28480 ft 430 kts 313°
2026-05-06 17:30 7.02648 99.47038 28037 ft 426 kts 313°
2026-05-06 17:30 7.04658 99.44892 27607 ft 422 kts 314°
2026-05-06 17:30 7.06679 99.42759 27181 ft 419 kts 314°
2026-05-06 17:30 7.08706 99.40626 26756 ft 417 kts 314°
2026-05-06 17:31 7.10684 99.38539 26340 ft 415 kts 314°
2026-05-06 17:31 7.12672 99.36432 25923 ft 413 kts 314°
2026-05-06 17:31 7.14643 99.34329 25490 ft 411 kts 314°
2026-05-06 17:31 7.16584 99.32250 25056 ft 411 kts 314°
2026-05-06 17:32 7.18545 99.30150 24615 ft 411 kts 314°
2026-05-06 17:32 7.20515 99.28045 24146 ft 411 kts 314°
2026-05-06 17:32 7.22474 99.25954 23692 ft 412 kts 314°
2026-05-06 17:32 7.24452 99.23847 23215 ft 412 kts 314°
2026-05-06 17:33 7.26402 99.21772 22765 ft 409 kts 314°
2026-05-06 17:33 7.28350 99.19696 22414 ft 403 kts 314°
2026-05-06 17:33 7.30249 99.17670 21978 ft 400 kts 314°
2026-05-06 17:33 7.32156 99.15633 21497 ft 399 kts 314°
2026-05-06 17:34 7.34057 99.13601 21035 ft 396 kts 314°
2026-05-06 17:34 7.35947 99.11582 20607 ft 393 kts 314°
2026-05-06 17:34 7.37823 99.09580 20150 ft 388 kts 314°
2026-05-06 17:34 7.39637 99.07643 19404 ft 382 kts 314°
2026-05-06 17:35 7.41431 99.05724 18954 ft 368 kts 315°
2026-05-06 17:35 7.43143 99.03892 18526 ft 358 kts 314°
2026-05-06 17:35 7.44862 99.02053 18088 ft 359 kts 315°
2026-05-06 17:36 7.48266 98.98410 17189 ft 356 kts 315°
2026-05-06 17:36 7.49950 98.96609 16763 ft 354 kts 314°
2026-05-06 17:36 7.51642 98.94802 16331 ft 353 kts 314°
2026-05-06 17:36 7.53332 98.92992 15904 ft 351 kts 314°
2026-05-06 17:37 7.54992 98.91215 15484 ft 350 kts 314°
2026-05-06 17:37 7.56656 98.89440 15065 ft 348 kts 314°
2026-05-06 17:37 7.58312 98.87674 14649 ft 347 kts 314°
2026-05-06 17:37 7.59967 98.85903 14220 ft 346 kts 314°
2026-05-06 17:38 7.61609 98.84147 13822 ft 345 kts 314°
2026-05-06 17:38 7.63267 98.82374 13375 ft 344 kts 314°
2026-05-06 17:38 7.64897 98.80634 12958 ft 342 kts 314°
2026-05-06 17:38 7.66534 98.78882 12543 ft 340 kts 314°
2026-05-06 17:39 7.68138 98.77162 12173 ft 337 kts 314°
2026-05-06 17:39 7.69734 98.75450 11867 ft 332 kts 314°
2026-05-06 17:39 7.71309 98.73762 11478 ft 331 kts 314°
2026-05-06 17:39 7.72874 98.72083 11080 ft 330 kts 314°
2026-05-06 17:40 7.74428 98.70408 10887 ft 322 kts 314°
2026-05-06 17:40 7.75438 98.69311 10745 ft 318 kts 313°
2026-05-06 17:40 7.77000 98.66810 10314 ft 316 kts 292°
2026-05-06 17:40 7.77574 98.64713 9780 ft 311 kts 278°
2026-05-06 17:41 7.77798 98.63294 9569 ft 306 kts 278°
2026-05-06 17:41 7.78253 98.60446 9278 ft 307 kts 279°
2026-05-06 17:41 7.78483 98.59029 9139 ft 307 kts 279°
2026-05-06 17:41 7.78830 98.56926 8923 ft 306 kts 279°
2026-05-06 17:42 7.79184 98.54789 8708 ft 305 kts 279°
2026-05-06 17:42 7.79530 98.52705 8497 ft 304 kts 279°
2026-05-06 17:42 7.79881 98.50594 8285 ft 304 kts 279°
2026-05-06 17:42 7.80342 98.48539 8071 ft 303 kts 290°
2026-05-06 17:43 7.81288 98.46638 7786 ft 303 kts 306°
2026-05-06 17:43 7.82623 98.45017 7410 ft 302 kts 313°
2026-05-06 17:43 7.84023 98.43419 7046 ft 302 kts 313°
2026-05-06 17:43 7.85404 98.41833 6684 ft 302 kts 312°
2026-05-06 17:44 7.86797 98.40228 6358 ft 301 kts 312°
2026-05-06 17:44 7.88167 98.38645 6048 ft 299 kts 312°
2026-05-06 17:44 7.89522 98.37077 5695 ft 299 kts 312°
2026-05-06 17:44 7.90893 98.35490 5261 ft 295 kts 312°
2026-05-06 17:45 7.92224 98.33949 4870 ft 295 kts 312°
2026-05-06 17:45 7.93559 98.32403 4597 ft 291 kts 312°
2026-05-06 17:45 7.94890 98.30862 4273 ft 291 kts 313°
2026-05-06 17:45 7.96227 98.29318 3846 ft 292 kts 313°
2026-05-06 17:46 7.97544 98.27799 3444 ft 281 kts 313°
2026-05-06 17:46 7.98779 98.26371 3324 ft 258 kts 313°
2026-05-06 17:46 7.99907 98.25063 3226 ft 237 kts 313°
2026-05-06 17:46 8.00943 98.23861 3129 ft 219 kts 314°
2026-05-06 17:47 8.01914 98.22737 3073 ft 206 kts 314°
2026-05-06 17:47 8.02875 98.21734 2896 ft 193 kts 325°
2026-05-06 17:47 8.03981 98.21058 2632 ft 178 kts 341°
2026-05-06 17:47 8.05092 98.20722 2425 ft 158 kts 356°
2026-05-06 17:48 8.06135 98.20661 2245 ft 147 kts
2026-05-06 17:48 8.07135 98.20823 2057 ft 144 kts 21°
2026-05-06 17:48 8.08059 98.21179 1884 ft 140 kts 32°
2026-05-06 17:48 8.08871 98.21698 1712 ft 138 kts 42°
2026-05-06 17:49 8.09554 98.22352 1546 ft 133 kts 54°
2026-05-06 17:49 8.10088 98.23113 1380 ft 132 kts 63°
2026-05-06 17:49 8.10469 98.23962 1215 ft 134 kts 73°
2026-05-06 17:49 8.10686 98.24863 1050 ft 132 kts 84°
2026-05-06 17:50 8.10775 98.25798 897 ft 136 kts 85°
2026-05-06 17:50 8.10852 98.26734 744 ft 134 kts 86°
2026-05-06 17:50 8.10937 98.27681 566 ft 136 kts 84°
2026-05-06 17:50 8.11036 98.28637 382 ft 138 kts 83°
2026-05-06 17:51 8.11128 98.29609 224 ft 140 kts 85°
2026-05-06 17:51 8.11219 98.30587 38 ft 138 kts 84°
2026-05-06 17:51 8.11298 98.31421 35 ft 96 kts 84°
2026-05-06 17:51 8.11346 98.31937 56 ft 60 kts 84°
2026-05-06 17:52 8.11372 98.32211 68 ft 22 kts 84°
2026-05-06 17:52 8.11351 98.32352 74 ft 20 kts 107°
2026-05-06 17:52 8.11300 98.32442 74 ft 9 kts 153°
2026-05-06 17:52 8.11252 98.32402 72 ft 12 kts 259°
2026-05-06 17:53 8.11243 98.32297 72 ft 18 kts 265°
2026-05-06 17:53 8.11229 98.32152 66 ft 24 kts 264°
2026-05-06 17:53 8.11217 98.32007 53 ft 22 kts 266°
2026-05-06 17:53 8.11204 98.31874 52 ft 15 kts 264°
2026-05-06 17:54 8.11194 98.31769 49 ft 18 kts 265°
2026-05-06 17:54 8.11177 98.31624 43 ft 24 kts 266°
2026-05-06 17:54 8.11162 98.31436 36 ft 30 kts 264°
2026-05-06 17:54 8.11148 98.31282 32 ft 16 kts 264°
2026-05-06 17:55 8.11138 98.31173 30 ft 14 kts 265°
2026-05-06 17:55 8.11128 98.31065 30 ft 13 kts 264°
2026-05-06 17:55 8.11118 98.30985 29 ft 12 kts 254°
2026-05-06 17:55 8.11084 98.30902 29 ft 15 kts 264°
2026-05-06 17:56 8.11075 98.30789 29 ft 18 kts 265°
2026-05-06 17:56 8.11062 98.30649 28 ft 22 kts 264°
2026-05-06 17:56 8.11049 98.30524 27 ft 12 kts 264°
2026-05-06 17:56 8.11010 98.30481 27 ft 10 kts 189°
2026-05-06 17:57 8.10928 98.30463 27 ft 11 kts 193°
2026-05-06 17:57 8.10873 98.30450 27 ft 7 kts 190°
2026-05-06 17:57 8.10858 98.30464 27 ft 3 kts 95°
2026-05-06 17:57 8.10852 98.30492 27 ft 5 kts 105°
2026-05-06 17:58 8.10844 98.30525 27 ft 2 kts 105°
2026-05-06 17:58 8.10843 98.30527 27 ft 0 kts 105°